When you browse on this site, cookies collect data to enhance your experience and personalize the content and advertising you see.
Visit our Privacy Policy to learn more. By continuing to use the site, you agree to this use of cookies and data.
  • En España
  • Lista de países
  • Para 7 días
  • Temperatura del agua
  • El tiempo en el mapa
  • Informadores
  • user-avatar
    Iniciar sesión

    Tiempo cada hora Yasnoe Utro

    Hoy, 19 Agosto, Lunes

    Tiempo Temperatura Precipitaciones Viento Presión Humedad
    00:00 +14°C° 0 mm 3 mps 744 mmHg 97%
    01:00 +14°C° 0 mm 3 mps 744 mmHg 97%
    02:00 +14°C° 0 mm 3 mps 745 mmHg 96%
    03:00 +13°C° 0 mm 3 mps 745 mmHg 96%
    04:00 +13°C° 0 mm 3 mps 745 mmHg 97%
    05:00 +13°C° 0 mm 3 mps 746 mmHg 97%
    06:00 +16°C° 0 mm 3 mps 746 mmHg 92%
    07:00 +17°C° 0 mm 3 mps 746 mmHg 88%
    08:00 +19°C° 0 mm 3 mps 747 mmHg 82%
    09:00 +20°C° 0 mm 3 mps 747 mmHg 77%
    10:00 +21°C° 0 mm 3 mps 747 mmHg 71%
    11:00 +24°C° 0 mm 3 mps 747 mmHg 66%
    12:00 +24°C° 0 mm 3 mps 747 mmHg 64%
    13:00 +25°C° 0 mm 3 mps 748 mmHg 62%
    14:00 +26°C° 0 mm 2 mps 748 mmHg 59%
    15:00 +25°C° 0 mm 2 mps 748 mmHg 63%
    16:00 +25°C° 0 mm 2 mps 748 mmHg 67%
    17:00 +25°C° 0 mm 1 mps 748 mmHg 70%
    18:00 +23°C° 0 mm 1 mps 748 mmHg 74%
    19:00 +22°C° 0 mm 1 mps 749 mmHg 78%
    20:00 +20°C° 0 mm 1 mps 749 mmHg 82%
    21:00 +19°C° 0 mm 1 mps 749 mmHg 84%
    22:00 +19°C° 0 mm 1 mps 749 mmHg 86%
    23:00 +18°C° 0 mm 1 mps 749 mmHg 87%

    Mañana, 20 Agosto, Martes

    Tiempo Temperatura Precipitaciones Viento Presión Humedad
    00:00 +18°C° 0 mm 1 mps 749 mmHg 87%
    01:00 +15°C° 0 mm 0 mps 749 mmHg 87%
    02:00 +15°C° 0 mm 0 mps 750 mmHg 86%
    03:00 +15°C° 0 mm 0 mps 750 mmHg 86%
    04:00 +15°C° 0 mm 0 mps 750 mmHg 86%
    05:00 +15°C° 0 mm 0 mps 750 mmHg 86%
    06:00 +17°C° 0 mm 0 mps 750 mmHg 80%
    07:00 +18°C° 0 mm 0 mps 750 mmHg 75%
    08:00 +20°C° 0 mm 0 mps 750 mmHg 70%
    09:00 +23°C° 0 mm 1 mps 750 mmHg 65%
    10:00 +25°C° 0 mm 1 mps 750 mmHg 61%
    11:00 +26°C° 0 mm 1 mps 751 mmHg 57%
    12:00 +26°C° 0 mm 1 mps 750 mmHg 55%
    13:00 +27°C° 0 mm 1 mps 750 mmHg 53%
    14:00 +27°C° 0 mm 1 mps 750 mmHg 52%
    15:00 +27°C° 0 mm 1 mps 750 mmHg 56%
    16:00 +27°C° 0 mm 1 mps 750 mmHg 60%
    17:00 +27°C° 0 mm 1 mps 750 mmHg 64%
    18:00 +25°C° 0 mm 1 mps 750 mmHg 67%
    19:00 +21°C° 0 mm 0 mps 751 mmHg 70%
    20:00 +19°C° 0 mm 0 mps 751 mmHg 73%
    21:00 +19°C° 0 mm 0 mps 751 mmHg 73%
    22:00 +20°C° 0 mm 1 mps 751 mmHg 74%
    23:00 +20°C° 0 mm 1 mps 751 mmHg 75%

    Pasado mañana, 21 Agosto, Miércoles

    Tiempo Temperatura Precipitaciones Viento Presión Humedad
    00:00 +18°C° 0 mm 0 mps 751 mmHg 76%
    01:00 +17°C° 0 mm 0 mps 751 mmHg 77%
    02:00 +17°C° 0 mm 0 mps 751 mmHg 78%
    03:00 +17°C° 0 mm 0 mps 751 mmHg 79%
    04:00 +17°C° 0 mm 0 mps 751 mmHg 80%
    05:00 +17°C° 0 mm 0 mps 751 mmHg 81%
    06:00 +18°C° 0 mm 0 mps 751 mmHg 76%
    07:00 +20°C° 0 mm 0 mps 752 mmHg 72%
    08:00 +22°C° 0 mm 0 mps 752 mmHg 68%
    09:00 +23°C° 0 mm 0 mps 752 mmHg 64%
    10:00 +24°C° 0 mm 0 mps 752 mmHg 61%
    11:00 +26°C° 0 mm 0 mps 752 mmHg 58%
    12:00 +28°C° 0 mm 1 mps 751 mmHg 56%
    13:00 +28°C° 0 mm 1 mps 751 mmHg 55%
    14:00 +29°C° 0 mm 1 mps 751 mmHg 54%
    15:00 +28°C° 0 mm 1 mps 751 mmHg 57%
    16:00 +28°C° 0 mm 1 mps 750 mmHg 61%
    17:00 +28°C° 0 mm 1 mps 750 mmHg 65%
    18:00 +26°C° 0 mm 1 mps 750 mmHg 69%
    19:00 +24°C° 0 mm 1 mps 750 mmHg 73%
    20:00 +22°C° 0 mm 1 mps 750 mmHg 77%
    21:00 +22°C° 0 mm 1 mps 750 mmHg 79%
    22:00 +21°C° 0 mm 1 mps 750 mmHg 80%
    23:00 +21°C° 0 mm 1 mps 750 mmHg 82%

    22 Agosto, Jueves

    Tiempo Temperatura Precipitaciones Viento Presión Humedad
    00:00 +20°C° 0 mm 1 mps 750 mmHg 83%
    01:00 +20°C° 0 mm 1 mps 750 mmHg 84%
    02:00 +20°C° 0 mm 1 mps 750 mmHg 85%
    03:00 +19°C° 0 mm 1 mps 749 mmHg 86%
    04:00 +19°C° 0 mm 1 mps 749 mmHg 86%
    05:00 +19°C° 0 mm 1 mps 749 mmHg 86%
    06:00 +21°C° 0 mm 1 mps 749 mmHg 81%
    07:00 +22°C° 0 mm 1 mps 749 mmHg 76%
    08:00 +24°C° 0 mm 1 mps 749 mmHg 71%
    09:00 +25°C° 0 mm 1 mps 749 mmHg 67%
    10:00 +26°C° 0 mm 1 mps 749 mmHg 63%
    11:00 +28°C° 0 mm 1 mps 749 mmHg 59%
    12:00 +28°C° 0 mm 1 mps 748 mmHg 57%
    13:00 +28°C° 0 mm 1 mps 748 mmHg 55%
    14:00 +28°C° 0 mm 1 mps 748 mmHg 53%
    15:00 +28°C° 0 mm 1 mps 748 mmHg 56%
    16:00 +28°C° 0 mm 1 mps 748 mmHg 59%
    17:00 +27°C° 0 mm 1 mps 747 mmHg 62%
    18:00 +26°C° 0 mm 1 mps 748 mmHg 65%
    19:00 +24°C° 0 mm 1 mps 748 mmHg 68%
    20:00 +20°C° 0 mm 0 mps 748 mmHg 71%
    21:00 +22°C° 0 mm 1 mps 748 mmHg 75%
    22:00 +21°C° 0 mm 1 mps 748 mmHg 79%
    23:00 +20°C° 0 mm 2 mps 748 mmHg 83%

    23 Agosto, Viernes

    Tiempo Temperatura Precipitaciones Viento Presión Humedad
    00:00 +19°C° 0 mm 2 mps 748 mmHg 86%
    01:00 +19°C° 0 mm 2 mps 748 mmHg 90%
    02:00 +18°C° 0 mm 2 mps 748 mmHg 94%
    03:00 +18°C° 0.5 mm 3 mps 748 mmHg 95%
    04:00 +18°C° 0.5 mm 3 mps 748 mmHg 96%
    05:00 +18°C° 0.5 mm 3 mps 748 mmHg 97%
    06:00 +18°C° 0.6 mm 3 mps 749 mmHg 96%
    07:00 +19°C° 0.6 mm 3 mps 749 mmHg 95%
    08:00 +19°C° 0.6 mm 3 mps 749 mmHg 94%
    09:00 +19°C° 1.5 mm 3 mps 749 mmHg 94%
    10:00 +19°C° 1.5 mm 3 mps 749 mmHg 94%
    11:00 +19°C° 1.5 mm 3 mps 749 mmHg 94%
    12:00 +18°C° 2.2 mm 3 mps 749 mmHg 94%
    13:00 +18°C° 2.2 mm 4 mps 749 mmHg 95%
    14:00 +18°C° 2.2 mm 4 mps 749 mmHg 95%
    15:00 +18°C° 0.3 mm 4 mps 749 mmHg 94%
    16:00 +18°C° 0.3 mm 4 mps 750 mmHg 93%
    17:00 +18°C° 0.3 mm 4 mps 750 mmHg 92%
    18:00 +17°C° 0 mm 3 mps 750 mmHg 93%
    19:00 +17°C° 0 mm 3 mps 750 mmHg 93%
    20:00 +16°C° 0 mm 2 mps 750 mmHg 94%
    21:00 +16°C° 0 mm 2 mps 751 mmHg 93%
    22:00 +14°C° 0 mm 3 mps 751 mmHg 92%
    23:00 +14°C° 0 mm 3 mps 751 mmHg 92%

    24 Agosto, Sábado

    Tiempo Temperatura Precipitaciones Viento Presión Humedad
    00:00 +13°C° 0 mm 3 mps 751 mmHg 92%
    01:00 +13°C° 0 mm 3 mps 751 mmHg 93%
    02:00 +13°C° 0 mm 3 mps 751 mmHg 93%
    03:00 +12°C° 0 mm 3 mps 752 mmHg 92%
    04:00 +12°C° 0 mm 3 mps 752 mmHg 91%
    05:00 +12°C° 0 mm 3 mps 752 mmHg 91%
    06:00 +13°C° 0 mm 3 mps 752 mmHg 86%
    07:00 +16°C° 0 mm 3 mps 752 mmHg 82%
    08:00 +17°C° 0 mm 3 mps 753 mmHg 78%
    09:00 +18°C° 0 mm 3 mps 753 mmHg 72%
    10:00 +20°C° 0 mm 3 mps 753 mmHg 66%
    11:00 +21°C° 0 mm 3 mps 753 mmHg 61%
    12:00 +21°C° 0 mm 3 mps 753 mmHg 60%
    13:00 +22°C° 0 mm 3 mps 753 mmHg 59%
    14:00 +22°C° 0 mm 3 mps 753 mmHg 58%
    15:00 +22°C° 0 mm 3 mps 753 mmHg 62%
    16:00 +21°C° 0 mm 2 mps 753 mmHg 66%
    17:00 +21°C° 0 mm 2 mps 753 mmHg 70%
    18:00 +19°C° 0 mm 2 mps 753 mmHg 73%
    19:00 +18°C° 0 mm 2 mps 753 mmHg 76%
    20:00 +16°C° 0 mm 2 mps 753 mmHg 79%
    21:00 +16°C° 0 mm 2 mps 753 mmHg 80%
    22:00 +15°C° 0 mm 1 mps 753 mmHg 81%
    23:00 +15°C° 0 mm 1 mps 753 mmHg 82%
    Mostrar más